Вернуться в каталог

OPS 4682 DEB

АктивенPO
NORAD 51501·DEBRIS·🇺🇸 United States

Запущен Apr 3, 1965 с Vandenberg Space Force Base

Loading…

Ближайшие Пролёты (ближайшие 24 часа)

TLE

СвежийSource: Space-Track

Эпоха: Sep 14, 2026, 09:13 UTC

1 51501U 65027GM  26257.38419200 -.00000024  00000-0 -91713-4 0  9994
2 51501  90.3532  47.0937 0022837  94.3420 266.0318 13.09333700540420

Отслеживайте OPS 4682 DEB в реальном времени с AllMySat

Download on the App Store